Regional Weather Roundup
Issued by NWS Cleveland, OH

Home | Current Version | Previous Version | Text Only | Print | Product List | Glossary Off
Versions: 1 2 3 4 5 6 7 8 9 10 11 12 13 14 15 16 17 18 19 20 21 22 23 24 25 26 27 28 29 30 31 32 33 34 35 36 37 38 39 40 41 42 43 44 45 46 47 48 49 50

000
ASUS41 KCLE 291610
RWRCLE
OHIO REGIONAL WEATHER ROUNDUP
NATIONAL WEATHER SERVICE CLEVELAND, OH
1200 PM EDT WED MAR 29 2017

NOTE: "FAIR" INDICATES FEW OR NO CLOUDS BELOW 12,000 FEET WITH NO
SIGNIFICANT WEATHER AND/OR OBSTRUCTIONS TO VISIBILITY.

OHZ001>008-015>018-024>027-034-035-043-044-291700-
   NORTHWEST OHIO

CITY           SKY/WX    TMP DP  RH WIND       PRES   REMARKS
DEFIANCE       SUNNY     47  36  65 E12       30.26F
FINDLAY        MOSUNNY   48  38  68 E12       30.25F
TOLEDO EXPRESS SUNNY     49  36  61 E8        30.27R
TOLEDO EXEC    SUNNY     49  39  68 E8        30.29R
LIMA           SUNNY     49  41  74 NE13G20   30.23F
$$

OHZ009>014-019>023-028>033-038-089-291700-
   NORTHEAST OHIO

CITY           SKY/WX    TMP DP  RH WIND       PRES   REMARKS
CLE-HOPKINS    MOSUNNY   51  36  56 NE9       30.28F
CLE-LAKEFRONT  SUNNY     40  37  89 N8        30.27F
CUY CO. ARPT   MOSUNNY   52  37  58 E9        30.27F
LORAIN-ELYRIA  SUNNY     49  34  56 E10       30.26F
ASHTABULA      SUNNY     49  32  52 VRB7G17   30.27F
AKRON-CANTON   MOSUNNY   49  35  58 E15       30.24F
WOOSTER        SUNNY     49  37  63 NE12      30.24F
MANSFIELD      MOSUNNY   45  38  76 NE9       30.24F
YOUNGSTOWN     MOSUNNY   51  34  52 NE13      30.25S
$$

OHZ042-051>053-060>062-070>072-077>081-291700-
  SOUTHWEST OHIO

CITY           SKY/WX    TMP DP  RH WIND       PRES   REMARKS
CINC-COVINGTON MOSUNNY   51  39  63 NE12      30.17F
CINC-LUNKEN    PTSUNNY   50  42  74 NE12      30.21F
HAMILTON       CLOUDY    47  42  83 E10       30.22F
DAYTON         MOSUNNY   50  39  66 E12       30.22S
WRIGHT-PAT AFB MOSUNNY   51  41  69 E14G20    30.21S
DAYTON GENERAL PTSUNNY   48  40  73 E8        30.20S
WILMINGTON     CLOUDY    45  40  82 E10       30.21R
$$

OHZ036-037-039>041-045>050-054>059-063>069-073>076-082>088-291700-
  CENTRAL AND SOUTHEAST OHIO

CITY           SKY/WX    TMP DP  RH WIND       PRES   REMARKS
COLUMBUS       MOSUNNY   54  41  61 NE12G21   30.21F
OSU AIRPORT    SUNNY     53  40  61 E12       30.22S
BOLTON FIELD   SUNNY     52  39  62 NE12      30.22S
RICKENBACK AFB PTSUNNY   50  40  69 E9        30.22S
NEWARK         SUNNY     52  38  58 E9        30.21F
MARION         PTSUNNY   46  39  76 NE9       30.26S
LANCASTER      MOSUNNY   53  41  63 E14       30.22F
ZANESVILLE     SUNNY     52  38  58 VRB3      30.22F
NEW PHILLY     NOT AVBL
$$




USA.gov is the U.S. government's official web portal to all federal, state and local government web resources and services.